Back to catalog

ATLAS 5 CENTAUR DEB

LostHEO
NORAD 47251·DEBRIS·🇺🇸 United States

Launched Oct 17, 2018 from Cape Canaveral Space Force Station

Loading…

Next Passes (next 24 hours)

TLE

StaleSource: Space-Track

Epoch: Feb 6, 2021, 11:36 UTC

1 47251U 18079EK  21037.48375885 -.00000067  00000-0  00000+0 0  9998
2 47251  11.4148 203.5630 4591054   6.7066 357.6879  1.94578946  1348

Track ATLAS 5 CENTAUR DEB in real time with AllMySat

Download on the App Store